sat.trackr.live / text

‹ back to catalog

ONEWEB-0047

NORAD 45152 · 2020-008X

PAYLOAD ACTIVE UNKNOWN

§ Identity

Operator
Country
UK
Launch date
2020-02-06
Launch site
TYMSC
Launch vehicle
Mass (kg)
RCS (m²)

Purposes: comms

External: N2YO · Heavens-Above · Gunter

§ Orbital elements

Epoch: 2026-05-25T03:58:10.703424Z

Period
109.89 min
Inclination
87.8858°
Eccentricity
0.0001886
Mean motion
13.10412250 rev/d
Perigee alt
1,220.1 km
Apogee alt
1,223.0 km
Semi-major
7,599.7 km
B*
1.6863e-3
RAAN
40.8479°
Arg perigee
75.6662°
Mean anomaly
284.4675°
Rev number
30,518

§ Raw data

ONEWEB-00471 45152U 20008X   26145.16540166  .00000602  00000+0  16863-2 0  99972 45152  87.8858  40.8479 0001886  75.6662 284.4675 13.10412250305182

JSON: /api/v1/satellites/45152 · /tle

For live sub-satellite position, see the globe view (requires WebGL).

§ Visibility from observer

Set your observer location to see the next 7 days of passes ≥ 10°. The values pass through the URL so the page stays shareable.

No JS? Fill the form by hand. The geolocation button needs JavaScript.